Location: Karaayakl?
(36.6667°N, 30.3667°E)
Time: 20:26:20
(UTC+00:00)

Daily predictions for brighter satellites

Satellite Brightness Start Highest point End
(mag) Time Altitude Azimuth Time Altitude Azimuth Time Altitude Azimuth
Okean-O 4.2 17:31:42 10° ESE 17:34:47 19° ENE 17:37:51 10° NNE
Cosmos 2233 Rocket 4.2 17:29:44 10° N 17:36:04 85° W 17:42:23 10° S
Cosmos-2242 3.5 17:35:01 10° SSE 17:38:52 38° E 17:42:47 10° NNE
CZ-4B R/B 3.9 17:38:31 10° S 17:41:53 40° W 17:45:24 10° NNW
PSLV R/B 4.3 17:40:06 10° SE 17:43:39 40° ENE 17:47:11 10° N
Cosmos 1602 4.0 17:42:10 10° NNW 17:45:43 63° W 17:49:14 10° S
DELTA 2 DEB (DPAF) 3.9 17:41:34 10° NNE 17:45:47 70° ESE 17:49:59 10° S
SL-16 R/B 3.1 17:42:04 10° SSE 17:46:40 26° ESE 17:51:18 10° NE
Cosmos 1538 Rocket 4.2 17:47:06 10° SSW 17:52:21 77° WNW 17:57:36 10° NNE
Cosmos 1933 4.0 17:50:24 10° SSE 17:53:58 34° E 17:57:33 10° NNE
Feng Yun 1-1 Rocket 4.4 17:50:40 10° SSE 17:56:32 86° ENE 18:02:29 10° NNW
Cosmos 1515 4.2 17:53:56 10° SSE 17:57:05 33° E 18:00:15 10° NNE
MOS 1-B 4.3 17:52:26 10° SSE 17:58:12 84° ENE 18:04:00 10° NNW
Lacrosse 5 3.8 17:56:34 10° NNW 18:00:18 20° NNE 18:04:03 10° E
SPOT 1/Viking Rocket 4.3 17:56:09 10° S 18:01:11 52° W 18:06:13 10° NNW
SeaSat 1 3.5 17:56:39 10° S 18:01:18 43° WSW 18:05:58 10° NW
CSL-04 Rocket 3.6 17:58:31 10° SSE 18:03:50 87° ENE 18:09:09 10° NNW
CZ-4 R/B 3.0 18:01:21 10° SSW 18:04:43 31° W 18:08:08 10° NNW
CZ-4C R/B 3.6 18:01:09 10° NNE 18:04:44 41° E 18:08:27 10° S
Cosmos 1812 Rocket 3.8 18:00:40 10° SSE 18:04:56 50° E 18:09:12 10° NNE
Cosmos 2369 Rocket 4.4 18:04:27 10° NE 18:05:19 10° NE 18:06:10 10° ENE
Meteor 2-21 4.4 17:59:21 10° S 18:05:31 74° E 18:11:40 10° N
CARTOSAT-1 3.5 18:02:02 10° SSE 18:06:17 88° WSW 18:10:33 10° NNW
Lacrosse 5 rocket 2.0 18:02:03 10° SW 18:06:17 61° NW 18:10:31 10° NE
FALCON 9 R/B 2.5 18:03:38 10° WSW 18:07:39 72° S 18:20:20 10° E
CSL-04 Debris 4.3 18:02:12 10° S 18:07:40 80° WSW 18:13:10 10° NNW
ATLAS 5 CENTAUR R/B 2.6 18:03:22 10° NW 18:08:43 67° WSW 18:14:56 11° SSE
Cosmos 1076 Rocket 4.3 18:04:54 10° NNW 18:08:59 50° W 18:13:04 10° SSW
Cosmos 2221 3.8 18:09:19 18° ESE 18:10:54 22° E 18:14:14 10° NE
Cosmos 2237 Rocket 3.3 18:07:54 10° SW 18:13:23 49° WNW 18:18:55 10° N
Resurs 01 Rocket 2.0 18:09:43 10° S 18:14:07 66° W 18:18:32 10° NNW
ATLAS 3B R/B 3.8 18:09:50 10° NNW 18:17:01 37° NE 18:22:33 16° ESE
USA 186 3.8 18:17:15 10° SSW 18:19:53 26° W 18:22:35 10° NW
Meteor 2-21 Rocket 4.4 18:14:14 10° S 18:20:22 69° E 18:26:32 10° NNE
Aureole 3 Rocket 4.5 18:19:55 10° NNE 18:23:12 23° E 18:24:30 20° ESE
Cosmos 923 Rocket 4.0 18:18:32 10° SSW 18:23:49 86° ESE 18:29:10 10° NNE
Cosmos 1378 2.9 18:23:30 27° SSE 18:25:00 51° E 18:28:12 10° NNE
Cosmos 921 Rocket 4.1 18:24:21 24° ESE 18:25:12 25° E 18:28:52 10° NE
SPOT 5 3.3 18:23:09 23° SE 18:25:42 42° ENE 18:30:00 10° N
Meteor 2-2 Rocket 4.4 18:20:13 10° S 18:26:15 86° W 18:32:18 10° N
OAO 3 Copernicus 4.2 18:21:20 10° W 18:26:21 74° S 18:29:37 22° ESE
GEOS 3 Rocket 3.6 18:24:47 10° NE 18:29:51 57° ESE 18:34:49 10° SSW
Cosmos 1464 Rocket 3.9 18:24:51 10° N 18:31:11 82° E 18:36:19 16° S
SL-8 R/B 3.9 18:28:25 10° SSW 18:32:54 44° SE 18:37:26 10° ENE
USA 308 2.9 18:31:20 10° NNW 18:34:02 39° NE 18:34:50 32° E
Aureole 2 4.5 18:31:55 10° NNW 18:34:44 53° WSW 18:35:46 32° SSW
ATLAS 2AS CENTAUR R/B 4.3 18:28:22 10° WSW 18:35:12 39° NW 18:41:51 10° NNE
Okean O Rocket 2.7 18:31:57 10° S 18:36:09 43° W 18:40:23 10° NNW
Terra 2.9 18:35:14 24° ESE 18:36:45 29° ENE 18:40:46 10° N
MOS 1 4.2 18:34:51 21° SSE 18:38:48 81° ENE 18:44:29 10° N
ERS-1 Rocket 3.6 18:39:00 28° ESE 18:40:57 40° ENE 18:45:38 10° N
USA 281 4.4 18:40:41 18° E 18:44:04 28° NE 18:49:29 10° N
IRS-1A Rocket 4.4 18:42:30 28° SE 18:45:28 60° ENE 18:50:58 10° N
Meteor 1-26 Rocket 4.3 18:41:30 10° S 18:47:30 85° E 18:53:34 10° N
Yuri Rocket 4.4 18:45:24 10° WSW 18:49:16 27° S 18:49:48 27° S
NOSS 3-1 (A) 4.3 18:48:05 10° NNW 18:55:47 68° NE 19:00:46 29° SE
NOSS 3-1 (C) 4.4 18:48:18 10° NW 18:56:08 72° WSW 19:02:00 25° SSE
Cosmos 1943 Rocket 2.6 18:50:43 10° NNW 18:56:16 58° WSW 18:59:29 25° S
Cosmos 1420 Rocket 4.2 18:53:21 10° N 18:58:36 58° ENE 19:00:17 40° SE
Cosmos 2278 Rocket 3.8 18:55:45 10° NW 19:00:33 29° WSW 19:05:02 11° SSW
OAO 2 Rocket 3.3 18:59:40 10° W 19:04:55 68° S 19:06:18 47° SE
Cosmos 1634 Rocket 4.2 18:59:53 10° N 19:06:01 51° E 19:07:57 38° SE
Cosmos 2112 Rocket 4.4 19:00:59 10° SSW 19:06:15 63° WNW 19:11:32 10° N
Cosmos 1743 3.3 19:04:09 10° N 19:07:04 39° NE 19:07:04 39° NE
Cosmos 2297 4.3 19:02:27 10° N 19:07:56 44° ENE 19:09:29 36° ESE
Okean-O 4.0 19:08:23 19° SSW 19:10:53 34° W 19:14:55 10° NNW
Cosmos 2034 Rocket 4.2 19:08:42 10° NNW 19:14:51 67° W 19:18:27 26° SSW
Spot 2 Rocket 3.5 19:13:58 51° SE 19:15:01 65° ENE 19:20:00 10° N
Cosmos 1766 Rocket 3.4 19:13:39 10° N 19:18:06 73° E 19:18:26 68° ESE
Meteor 2-6 Rocket 4.1 19:16:23 41° S 19:18:27 78° E 19:24:01 10° NNE
Tsikada Rocket 4.2 19:16:12 20° SSW 19:20:37 69° W 19:26:50 10° N
USA 290 3.1 19:18:10 10° NNW 19:20:45 47° WNW 19:20:45 47° WNW
USA 32 4.0 19:20:43 40° SSW 19:22:38 80° W 19:27:52 10° N
Gbstr 26 Del rocket 3.7 19:19:51 10° WNW 19:25:25 50° SW 19:26:07 46° SSW
Cosmos 1726 4.2 19:25:16 10° NNE 19:26:04 15° NNE 19:26:04 15° NNE
SL-16 R/B 3.6 19:25:18 10° SW 19:30:31 38° WNW 19:35:48 10° N
Cosmos 1603 4.4 19:33:53 37° E 19:33:53 37° E 19:38:09 10° NE
MetOp-A 4.4 19:33:25 39° ENE 19:33:25 39° ENE 19:37:18 10° N
MOS 1 Rocket 3.3 19:34:46 72° SE 19:35:10 78° ENE 19:40:21 10° N
Ariane Rocket 2.9 19:36:41 64° SSW 19:37:25 78° WSW 19:42:31 10° NNW
Meteor 1-27 Rocket 4.4 19:39:56 37° ENE 19:39:56 37° ENE 19:44:22 10° NNE
Cosmos 2056 Rocket 3.6 19:37:05 10° NNW 19:42:25 67° WSW 19:43:10 59° SSW
Lacrosse 5 1.7 19:38:42 10° NW 19:43:49 81° SW 19:43:56 80° SSW
Cosmos 1624 Rocket 4.1 19:39:36 10° NNW 19:44:44 64° WSW 19:45:19 59° SW
Cosmos 1452 Rocket 4.4 19:41:44 10° N 19:46:28 36° ENE 19:46:28 36° ENE
Cosmos 2221 4.5 19:45:53 17° WSW 19:48:03 25° WNW 19:51:39 10° NNW
Cosmos 1536 4.3 19:44:46 10° N 19:46:58 28° NNE 19:46:58 28° NNE
Cosmos 44 3.2 19:44:02 10° NNW 19:48:23 74° NW 19:48:23 74° NW
Spot 1 4.4 19:45:42 10° N 19:49:25 60° NW 19:49:25 60° NW
Cosmos 1408 Rocket 4.5 19:45:54 10° N 19:49:10 39° NE 19:49:10 39° NE
Cosmos 2369 Rocket 2.0 19:44:40 10° NNW 19:50:17 75° ENE 19:50:37 73° ESE
CZ-3 Stage 3 4.5 19:19:10 10° SW 19:55:15 43° S 19:57:38 40° SSE
Meteor 2-17 Rocket 4.5 20:06:28 61° E 20:06:28 61° E 20:12:11 10° NNE
ATLAS 3B R/B 3.4 20:00:29 10° NW 20:08:00 51° WSW 20:09:47 44° SSW
Okean 3 Rocket 4.5 20:07:14 10° NNW 20:10:46 44° WNW 20:10:46 44° WNW
Cosmos 1943 3.7 20:12:14 42° WSW 20:13:50 55° WNW 20:19:24 10° NNE
Terra 3.4 20:13:57 25° WSW 20:14:16 25° W 20:18:08 10° NW
USA 281 3.5 20:27:32 51° SW 20:28:10 53° WSW 20:34:36 10° NNW
BREEZE-M DEB (TANK) 4.2 20:30:27 42° ENE 20:30:27 42° ENE 20:38:39 10° NE
Meteor 1-19 Rocket 4.4 20:31:47 71° W 20:31:48 71° W 20:37:40 10° N
Meteor 2-9 Rocket 4.3 20:27:41 10° N 20:33:05 77° NNW 20:33:05 77° NNW
Meteor 1-11 Rocket 4.0 20:30:30 10° NNW 20:35:44 61° WNW 20:35:44 61° WNW
USA 59 Rocket 2.6 20:33:56 10° NNE 20:36:26 15° NE 20:36:26 15° NE
ARIANE 5 R/B 4.1 20:38:36 34° N 20:38:36 34° N 20:41:09 10° N
Meteor 2-10 4.4 20:33:58 10° N 20:38:41 64° NNW 20:38:41 64° NNW
ISS -0.4 20:43:16 10° NNW 20:43:46 12° NNW 20:43:46 12° NNW
Nadezhda 4 Rocket 4.2 20:46:07 59° W 20:46:17 60° W 20:52:25 10° N
USA 229 DEB 4.2 20:54:07 10° NW 21:01:37 56° WSW 21:01:46 56° WSW
USA 229 4.2 20:54:12 10° NW 21:01:43 57° WSW 21:01:53 57° WSW
USA 267 3.5 21:15:46 10° NE 21:22:12 63° NW 21:23:24 54° W
Cosmos 2026 Rocket 4.5 21:27:52 54° WNW 21:27:52 54° WNW 21:33:37 10° N
Cosmos 1833 Rocket 4.0 21:35:30 31° NE 21:35:30 31° NE 21:38:37 10° NNE
USA 234 4.3 21:51:34 25° E 21:54:46 41° NE 22:00:48 10° NNW
Cosmos 1553 Rocket 4.3 21:50:10 10° N 21:55:01 58° NNW 21:55:01 58° NNW
Lacrosse 4 Rocket 4.0 22:09:25 10° NNW 22:10:34 18° NNW 22:10:34 18° NNW
USA 59 Rocket 2.4 22:21:39 10° NW 22:22:59 20° NW 22:22:59 20° NW
H-2A R/B 4.2 22:23:46 10° N 22:25:53 24° NNW 22:25:53 24° NNW
Cosmos 1697 Rocket 3.4 22:26:39 10° NNW 22:31:17 50° NNE 22:31:17 50° NNE
Cosmos 2266 Rocket 4.4 22:35:15 52° NW 22:35:15 52° NW 22:40:24 10° N
Cosmos 1980 Rocket 3.7 22:32:42 10° N 22:37:38 29° ENE 22:38:51 27° E
Cosmos 1607 4.2 22:39:11 68° NNW 22:39:11 68° NNW 22:45:09 10° NNE
Cosmos 2251 Rocket 4.4 23:05:57 42° NNW 23:05:57 42° NNW 23:09:55 10° N
Cosmos 2082 Rocket 2.4 23:08:47 68° NNE 23:08:47 68° NNE 23:13:45 10° NNE
Meteor 2-20 4.4 23:03:01 10° N 23:08:50 80° NNE 23:08:50 80° NNE
Cosmos 1833 Rocket 4.4 23:17:10 22° WNW 23:17:24 22° WNW 23:21:41 10° N
Cosmos 1954 Rocket 4.3 23:20:53 64° NNE 23:20:53 64° NNE 23:25:22 10° NNE
NOSS 3-4 (A) 4.2 23:14:58 10° NNW 23:22:05 66° NE 23:28:05 19° SE
NOSS 3-4 (C) 4.2 23:15:02 10° NNW 23:22:08 65° NE 23:28:22 18° SE
Meteor 2-10 Rocket 4.1 23:17:27 10° NNW 23:22:17 56° NW 23:22:17 56° NW
MOZ.5/SAFIR/RUBIN 5/SL-8 4.4 23:24:17 54° NNE 23:24:17 54° NNE 23:28:13 10° N
ADEOS II 3.7 23:20:47 10° NE 23:25:01 24° E 23:25:38 24° ESE
Okean 1-7 4.2 23:26:56 39° NNE 23:26:56 39° NNE 23:29:46 10° NNE
Cosmos 44 Rocket 4.4 23:23:05 10° NNW 23:26:07 38° NNW 23:26:07 38° NNW
ATLAS CENTAUR R/B 4.0 23:17:37 10° NW 23:30:41 89° NE 23:36:31 23° SE
SL-08 R/B 4.3 23:33:48 80° WSW 23:33:57 81° W 23:40:10 10° N
Cosmos 1745 Rocket 4.2 23:33:15 55° SE 23:34:05 60° E 23:40:13 10° NNE
IDEFIX/ARIANE 42P 2.7 23:30:19 10° NNE 23:35:21 67° E 23:35:21 67° E
USA 234 3.5 23:38:51 49° W 23:38:51 49° W 23:44:00 10° NW
Cosmos 1763 Rocket 3.8 23:37:00 10° NNW 23:41:20 58° NW 23:41:20 58° NW
CZ-2C R/B 4.1 23:37:02 10° NNE 23:42:32 43° E 23:43:40 38° SE
CZ-2D R/B 2.3 23:40:06 10° NNE 23:45:32 61° ESE 23:45:55 60° ESE
ALOS 4.3 23:43:54 10° NE 23:47:11 19° E 23:48:20 17° ESE
COBE Rocket 3.9 23:49:41 10° N 23:54:16 73° NW 23:54:16 73° NW
